Retour au catalogue

CZ-6A DEB

ActifPO
NORAD 60645·DEBRIS·🇨🇳 China

Lancé Aug 6, 2024 depuis Taiyuan Satellite Launch Center

Loading…

Prochains Passages (prochaines 24 heures)

TLE

FraisSource: Space-Track

Époque: Sep 14, 2026, 23:25 UTC

1 60645U 24140AW  26257.97592288  .00000155  00000-0  14889-3 0  9998
2 60645  88.7530 257.4555 0504173 205.8626 151.6512 13.31271028102143

Suivez CZ-6A DEB en temps réel avec AllMySat

Download on the App Store